sat.trackr.live / text

‹ back to catalog

STARLINK-36552

NORAD 67503 · 2026-012L

PAYLOAD ACTIVE UNKNOWN

§ Identity

Operator
Country
US
Launch date
2026-01-18
Launch site
AFETR
Launch vehicle
Mass (kg)
RCS (m²)

Purposes: comms

External: N2YO · Heavens-Above · Gunter

§ Orbital elements

Epoch: 2026-09-19T19:43:37.814880Z

Period
94.27 min
Inclination
43.0049°
Eccentricity
0.0001532
Mean motion
15.27588058 rev/d
Perigee alt
482.0 km
Apogee alt
484.1 km
Semi-major
6,861.2 km
B*
5.0329e-4
RAAN
297.8884°
Arg perigee
279.2076°
Mean anomaly
80.8602°
Rev number
3,745

§ Raw data

STARLINK-365521 67503U 26012L   26262.82196545  .00013616  00000+0  50329-3 0  99982 67503  43.0049 297.8884 0001532 279.2076  80.8602 15.27588058 37455

JSON: /api/v1/satellites/67503 · /tle

For live sub-satellite position, see the globe view (requires WebGL).

§ Visibility from observer

Set your observer location to see the next 7 days of passes ≥ 10°. The values pass through the URL so the page stays shareable.

No JS? Fill the form by hand. The geolocation button needs JavaScript.